Location: ??????????
(54.8537°N, 38.8755°E)
Time: 20:18:55
(UTC+00:00)

Tiros 1 despin weight - Pass Details

Date: 14 September 2024
Orbit: 572 x 613 km, 48.2° (Epoch: 13 October)

Event Time Altitude Azimuth Distance (km) Brightness Sun altitude
Exits shadow 02:08:29 - 224° (SW) 2,327 ? -7.5°
Reaches altitude 10° 02:09:32 10° 217° (SW) 1,972 ? -7.3°
Maximum altitude 02:13:20 27° 161° (SSE) 1,203 ? -6.8°
Drops below altitude 10° 02:17:08 10° 104° (ESE) 1,979 ? -6.3°
Sets 02:19:43 0° 92° (E) 2,884 ? -5.9°
